Location: Unspecified
(0.0000°N, 0.0000°E)
Time: 17:49:27
(UTC+00:00)

STARLINK 1062 - Pass Details

Date: 20 January 2020
Orbit: 548 x 551 km, 53.0° (Epoch: 17 January)

Event Time Altitude Azimuth Distance (km) Brightness Sun altitude
Rises 05:11:27 0° 203° (SSW) 2,713 7.1 -13.9°
Reaches altitude 10° 05:13:45 10° 197° (SSW) 1,818 6.3 -13.4°
Maximum altitude 05:17:42 44° 124° (SE) 763 4.9 -12.4°
Drops below altitude 10° 05:21:37 10° 51° (NE) 1,809 6.7 -11.5°
Sets 05:23:55 0° 45° (NE) 2,699 7.5 -11.0°
